Miscellaneous Local Product
Issued by NWS North Platte, NE

Home | Current Version | Previous Version | Text Only | Print | Product List | Glossary On
Versions: 1 2 3 4 5 6 7 8 9 10 11 12 13 14 15 16 17 18 19 20 21 22 23 24 25 26 27 28 29 30 31 32 33 34 35 36 37 38 39 40 41 42 43 44 45 46 47 48 49 50
000
AXUS43 KLBF 270910
MISLBF


WESTERN AND NORTH CENTRAL NEBRASKA HOURLY WEATHER ROUNDUP
NATIONAL WEATHER SERVICE NORTH PLATTE NE
400 AM CDT MON MAR 27 2017

NOTE: "FAIR" INDICATES FEW OR NO CLOUDS BELOW 12,000 FEET WITH NO
SIGNIFICANT WEATHER AND/OR OBSTRUCTIONS TO VISIBILITY.

NOTE: STATIONS NOT REPORTING VARIABLES SUCH AS SKY/WEATHER OR
PRESSURE ARE PROVIDED BY RAWS AND APRS NETWORKS AND ARE NOT UNDER
NATIONAL WEATHER SERVICE QUALITY CONTROL.

...OBSERVATIONS IN AND NEAR THE EASTERN PANHANDLE OF NEBRASKA...

CITY           SKY/WX    TMP DP  RH WIND       PRES   REMARKS
PINE RIDGE     CLOUDY    41  39  93 W3        29.91F
CHADRON        FOG       34  33  96 S3        29.91F VSB 1/4
ALLIANCE       CLOUDY    26  24  92 W5        29.91F WCI  20
SIDNEY         CLOUDY    28  26  92 NW8       29.93F WCI  20
CRESCENT LAKE    N/A     36  36 100 NW5         N/A  WCI  32
$$

...OBSERVATIONS IN NORTHERN NEBRASKA AND FAR SOUTHERN SOUTH DAKOTA...

CITY           SKY/WX    TMP DP  RH WIND       PRES   REMARKS
WINNER         FAIR      35  32  88 CALM      29.93F
VALENTINE      MOCLDY    29  27  92 W5        29.93F WCI  24
THEDFORD       FOG       40  40  99 CALM      29.92F VSB 1/4
AINSWORTH      FOG       31  31 100 CALM      29.92F VSB 1/2
O`NEILL        CLOUDY    42  40  93 NW5       29.94R
ORD            CLOUDY    44  40  85 VRB3      29.92F
BROKEN BOW     HAZE      39  33  79 N6        29.92S VSB 1/4 WCI  35
BUTTE            N/A     38  37  97 CALM        N/A
CHAMBERS         N/A     42  40  92 CALM        N/A
EWING            N/A     42  40  94 CALM        N/A
$$

...OBSERVATIONS IN SOUTHWEST NEBRASKA AND FAR NORTHEAST COLORADO...

CITY           SKY/WX    TMP DP  RH WIND       PRES   REMARKS
WRAY           FAIR      36  36 100 W5        29.95  WCI  32
HOLYOKE        FAIR      37  36  93 W7        29.93F WCI  32
IMPERIAL       CLEAR     37  34  89 W8        29.91F WCI  31
OGALLALA       CLEAR     35  33  94 W8        29.91F WCI  28
NORTH PLATTE   PTCLDY    37  36  96 E7        29.91F FOG     WCI  32
MCCOOK         CLEAR     35  35 100 SW5       29.93S WCI  31
LEXINGTON        N/A     39  37  92 W3        29.92S FOG
STAPLETON        N/A     39  38  95 CALM        N/A
GOTHENBURG       N/A     35  33  93 CALM        N/A
CALLAWAY         N/A     38  37  97 CALM        N/A
$$

...OBSERVATIONS IN CENTRAL LINCOLN COUNTY AREA...

CITY           SKY/WX    TMP DP  RH WIND       PRES   REMARKS
N.P. AIRPORT   PTCLDY    37  36  96 E7        29.91F FOG     WCI  32
N.P. DOWNTOWN    N/A     40  38  92 CALM        N/A
N.P. SOUTHEAST   N/A     40  38  92 CALM        N/A
N.P. HILLCREST   N/A     42  40  91 CALM        N/A
$$

...SOME OBSERVATIONS FROM AROUND THE REGION...

CITY           SKY/WX    TMP DP  RH WIND       PRES   REMARKS
DENVER         PTCLDY    32  29  88 S10       29.95S WCI  24
LIMON          PTCLDY    30  30 100 N5        29.96F WCI  25
ASPEN          CLOUDY    31  21  66 S7        30.01S WCI  24
LARAMIE        CLOUDY    28  26  92 S8        29.93F WCI  20
CASPER         CLOUDY    37  29  72 SW7       29.86F WCI  32
CHEYENNE       CLEAR     32  30  92 W7        29.93F WCI  26
SCOTTSBLUFF    CLEAR     29  26  89 CALM      29.93F
GRAND ISLAND   CLOUDY    43  43 100 NE8       29.93F FOG
OMAHA          CLOUDY    46  41  82 N3        29.93S
SIOUX FALLS    CLOUDY    41  39  93 N3        29.95S
PIERRE         CLOUDY    40  38  93 CALM      29.92F
RAPID CITY     CLOUDY    30  29  96 SE3       29.89F
BISMARCK       PTCLDY    32  30  92 E5        29.91F WCI  27
KANSAS CITY    DRIZZLE   46  45  96 NE13      29.82F
HILL CITY      CLEAR     36  36 100 NW6       29.94S FOG     WCI  31
WICHITA        CLOUDY    48  47  96 NW12      29.85R
DODGE CITY     CLOUDY    41  40  96 NW13      29.92S
OKLAHOMA CITY  CLOUDY    53  49  86 NW17      29.80R
DALLAS         MOCLDY    70  65  84 SW8       29.78R
AMARILLO       CLEAR     38  36  92 NW12      29.96S WCI  30
$$




USA.gov is the U.S. government's official web portal to all federal, state and local government web resources and services.